Location: Newark
(48.1774°N, 17.0743°E)
Time: 22:24:19
(UTC+00:00)

Envisat - Visible Passes

Search period start: 17 November 2019 00:00
Search period end: 27 November 2019 00:00
Orbit: 764 x 766 km, 98.1° (Epoch: 17 November)

Date Brightness Start Highest point End Pass type
(mag) Time Alt. Az. Time Alt. Az. Time Alt. Az.
17 Nov 3.1 16:52:20 10° S 16:57:25 77° WSW 17:02:32 10° NNW visible
17 Nov 6.2 18:36:04 10° W 18:37:18 11° W 18:38:33 10° WNW visible
18 Nov 5.3 04:57:56 10° NE 05:02:19 28° E 05:06:41 10° SSE visible
18 Nov 3.1 16:15:47 10° SE 16:20:42 53° ENE 16:25:39 10° N visible
18 Nov 5.3 17:56:03 10° SW 18:00:02 23° W 18:04:02 10° NW visible
19 Nov 6.1 04:22:31 10° NE 04:25:08 14° E 04:27:44 10° ESE visible
19 Nov 3.9 15:39:56 10° ESE 15:44:11 28° ENE 15:48:26 10° N visible
19 Nov 4.0 17:18:07 10° S 17:22:59 46° W 17:27:54 10° NNW visible
20 Nov 4.3 05:23:04 10° NNE 05:28:00 47° E 05:32:52 10° S visible
20 Nov 2.9 16:41:03 10° SSE 16:46:09 87° ENE 16:51:16 10° NNW visible
20 Nov 6.0 18:23:19 10° WSW 18:25:51 14° W 18:28:25 10° NW visible
21 Nov 5.6 04:46:54 10° NE 04:50:56 23° E 04:54:57 10° SE visible
21 Nov 3.3 16:04:42 10° SE 16:09:29 43° ENE 16:14:17 10° N visible
21 Nov 5.0 17:44:19 10° SSW 17:48:40 28° W 17:53:02 10° NW visible
22 Nov 6.4 04:12:18 10° ENE 04:13:41 11° E 04:15:04 10° E visible
22 Nov 3.6 17:06:40 10° S 17:11:40 57° W 17:16:42 10° NNW visible
23 Nov 4.7 05:11:55 10° NNE 05:16:40 38° E 05:21:22 10° SSE visible
23 Nov 2.9 16:29:50 10° SSE 16:34:53 71° ENE 16:39:57 10° N visible
23 Nov 5.7 18:11:09 10° SW 18:14:26 17° W 18:17:45 10° NW visible
24 Nov 5.9 04:35:59 10° NE 04:39:33 19° E 04:43:06 10° SE visible
24 Nov 3.5 15:53:41 10° SE 15:58:17 36° ENE 16:02:53 10° N visible
24 Nov 4.6 17:32:41 10° SSW 17:37:18 34° W 17:41:56 10° NNW visible
25 Nov 3.6 05:37:12 10° NNE 05:42:16 63° E 05:47:18 10° S visible
25 Nov 3.2 16:55:18 10° S 17:00:22 71° WSW 17:05:28 10° NNW visible
26 Nov 5.1 05:00:48 10° NNE 05:05:18 31° E 05:09:47 10° SSE visible
26 Nov 3.0 16:18:40 10° SSE 16:23:38 57° ENE 16:28:37 10° N visible
26 Nov 5.4 17:59:13 10° SW 18:03:02 21° W 18:06:52 10° NW visible
